Weather in Novoiushino

Russia / Altai Krai     53°37′42″N   85°49′09″E
temp.,
°C
wind,
m/s
gust,
m/s
humid.,
%
clouds,
%
prec.,
mm/h
press.,
hPa
HPBL,
m
15 june, tue
tue1501:00+9nne22790 0.0 101916
04:00+7ne11875 0.0 101910
07:00+12nne12705 0.0 1019105
10:00+19n024121 0.0 10181168
13:00+22w243595 0.0 10171826
16:00+22w454064 0.0 10161500
19:00+21wsw34554 0.0 1015682
22:00+14sw118847 0.0 101511
16 june, wed
wed1601:00+12w11955 0.4 101510
04:00+11sw11960 0.7 101512
07:00+13sw12930 0.7 101598
10:00+19sw35631 0.0 1015548
13:00+23wsw34555 0.0 10141207
16:00+25wsw34498 0.1 10131955
19:00+24sw23535 0.1 10121327
22:00+16wnw119013 0.4 101311
17 june, thu
thu1701:00+14ssw119328 0.7 101311
04:00+13s119695 0.8 101211
07:00+16sse1395100 0.9 1011114
10:00+21ssw35655 0.0 1011553
13:00+25sw4653100 0.0 10091313
16:00+25sw475596 0.8 10081789
19:00+17nw5994100 6.9 1007276
22:00+14ssw1296100 1.1 100947
18 june, fri
fri1801:00+13se1197100 1.5 100810
04:00+12sw11989 0.0 100810
07:00+15sw12977 0.0 100898
10:00+21sw23700 0.1 1007606
13:00+24wsw46490 0.1 10061816
16:00+24w45470 0.0 10061760
19:00+23w23562 0.0 1006944
22:00+16n11860 0.0 100511
19 june, sat
sat1901:00+14ene11933 0.0 100511
04:00+14ene11930 0.0 100411
07:00+17e11805 0.0 100474
10:00+24sse22535 0.0 1004660
13:00+27sw214575 0.0 10031474
16:00+28sw234210 0.0 10021895
19:00+26nw236197 0.0 1001416
22:00+19ene22831 0.1 100215